This is the latest recevied weather packets stored in our database for station/object SV9TNF-51. If no packets are shown the sender has not sent any weather packets the latest 10 day(s).
| Time | Temp. | Humidity | Pressure | Rain* | Wind** | Luminosity | Snow |
|---|---|---|---|---|---|---|---|
| 1788288504 | 25.56° C | 66% | 1011.9 hPa | 0 mm | 2.68 m/s, 136° | - | - |
| 1788288204 | 25.56° C | 67% | 1011.9 hPa | 0 mm | 2.24 m/s, 144° | - | - |
| 1788287904 | 25.56° C | 66% | 1011.9 hPa | 0 mm | 4.47 m/s, 355° | - | - |
| 1788287603 | 25.56° C | 66% | 1011.9 hPa | 0 mm | 3.13 m/s, 65° | - | - |
| 1788287304 | 25.56° C | 66% | 1011.9 hPa | 0 mm | 2.68 m/s, 195° | - | - |
| 1788287004 | 25.56° C | 66% | 1011.9 hPa | 0 mm | 1.34 m/s, 128° | - | - |
| 1788286703 | 25.56° C | 66% | 1011.9 hPa | 0 mm | 1.34 m/s, 149° | - | - |
| 1788286403 | 26.11° C | 66% | 1011.5 hPa | 0 mm | 3.13 m/s, 353° | - | - |
| 1788286103 | 26.11° C | 66% | 1011.5 hPa | 0 mm | 0 m/s | - | - |
| 1788285803 | 26.11° C | 66% | 1011.5 hPa | 0 mm | 0.45 m/s, 129° | - | - |
| 1788285503 | 26.11° C | 66% | 1011.5 hPa | 0 mm | 2.68 m/s, 51° | - | - |
| 1788285203 | 26.11° C | 65% | 1011.5 hPa | 0 mm | 3.13 m/s, 336° | - | - |
| 1788284903 | 26.11° C | 65% | 1011.5 hPa | 0 mm | 1.79 m/s, 56° | - | - |
| 1788284603 | 26.11° C | 65% | 1011.5 hPa | 0 mm | 4.02 m/s, 64° | - | - |
| 1788284302 | 26.11° C | 65% | 1011.5 hPa | 0 mm | 4.47 m/s, 329° | - | - |
| 1788284002 | 26.11° C | 64% | 1011.2 hPa | 0 mm | 4.47 m/s, 352° | - | - |
| 1788283702 | 26.11° C | 64% | 1011.2 hPa | 0 mm | 4.92 m/s, 336° | - | - |
| 1788283402 | 26.11° C | 65% | 1011.2 hPa | 0 mm | 3.13 m/s, 80° | - | - |
| 1788283102 | 26.11° C | 64% | 1011.2 hPa | 0 mm | 4.02 m/s, 337° | - | - |
| 1788282802 | 26.11° C | 64% | 1011.2 hPa | 0 mm | 4.92 m/s, 347° | - | - |
| 1788282502 | 26.67° C | 64% | 1011.2 hPa | 0 mm | 3.13 m/s, 347° | - | - |
| 1788282202 | 26.67° C | 64% | 1011.2 hPa | 0 mm | 5.81 m/s, 334° | - | - |
| 1788281902 | 26.67° C | 63% | 1011.2 hPa | 0 mm | 4.92 m/s, 359° | - | - |
| 1788281602 | 26.67° C | 62% | 1011.2 hPa | 0 mm | 4.92 m/s, 313° | - | - |
| 1788281302 | 26.67° C | 62% | 1010.8 hPa | 0 mm | 4.47 m/s, 341° | - | - |
* Rain latest hour (hover to see other rain measurements)
** Current wind speed in m/s (hover to see current wind gust speed)